| time (UTC) | temp F | wind direction | speed MPH | gust MPH | rain 1hr in | rain 24hr in | rain mn in | humidity % | barometer mb |
| 20260506144944 | 0 | 225 | 12.0 | 19.0 | 0.00 | 0.00 | 0.00 | 1000.1 | |
| 20260506143806 | 0 | 338 | 12.0 | 21.0 | 0.00 | 0.00 | 0.00 | 1000.2 | |
| 20260506142625 | 0 | 225 | 13.0 | 18.0 | 0.00 | 0.00 | 0.00 | 1000.6 | |
| 20260506141449 | 0 | 315 | 6.0 | 19.0 | 0.00 | 0.00 | 0.00 | 1000.7 | |
| 20260506140307 | 0 | 180 | 8.0 | 22.0 | 0.00 | 0.00 | 0.00 | 1000.8 | |
| 20260506135127 | 0 | 180 | 13.0 | 18.0 | 0.00 | 0.00 | 0.00 | 1000.7 | |
| 20260506133953 | 0 | 248 | 17.0 | 22.0 | 0.00 | 0.00 | 0.00 | 1000.7 | |
| 20260506132810 | 0 | 315 | 19.0 | 21.0 | 0.00 | 0.00 | 0.00 | 1000.8 | |
| 20260506131630 | 0 | 248 | 8.0 | 18.0 | 0.00 | 0.00 | 0.00 | 1001.0 | |
| 20260506130452 | 0 | 248 | 6.0 | 13.0 | 0.00 | 0.00 | 0.00 | 1001.4 | |
| 20260506125313 | 0 | 338 | 9.0 | 16.0 | 0.00 | 0.00 | 0.00 | 1001.6 | |
| 20260506124134 | 0 | 225 | 5.0 | 10.0 | 0.00 | 0.00 | 0.00 | 1001.8 | |
| 20260506122954 | 0 | 180 | 3.0 | 14.0 | 0.00 | 0.00 | 0.00 | 1001.9 | |
| 20260506121815 | 0 | 180 | 7.0 | 16.0 | 0.00 | 0.00 | 0.00 | 1001.8 | |
| 20260506120637 | 0 | 180 | 6.0 | 11.0 | 0.00 | 0.00 | 0.00 | 1001.8 | |
| 20260506115458 | 0 | 225 | 5.0 | 14.0 | 0.00 | 0.00 | 0.00 | 1001.8 | |
| 20260506114329 | 0 | 315 | 2.0 | 8.0 | 0.00 | 0.00 | 0.00 | 1001.9 | |
| 20260506113142 | 0 | 225 | 5.0 | 11.0 | 0.00 | 0.00 | 0.00 | 1002.0 | |
| 20260506112004 | 0 | 225 | 8.0 | 13.0 | 0.00 | 0.00 | 0.00 | 1002.1 | |
| 20260506110826 | 0 | 180 | 11.0 | 14.0 | 0.00 | 0.00 | 0.00 | 1002.4 | |
| 20260506105646 | 0 | 338 | 3.0 | 12.0 | 0.00 | 0.00 | 0.00 | 1002.4 | |
| 20260506104508 | 0 | 338 | 7.0 | 16.0 | 0.00 | 0.00 | 0.00 | 1002.3 | |
| 20260506103330 | 0 | 225 | 9.0 | 13.0 | 0.00 | 0.00 | 0.00 | 1002.7 | |
| 20260506102152 | 0 | 338 | 6.0 | 12.0 | 0.00 | 0.00 | 0.00 | 1002.7 | |
| 20260506101014 | 0 | 338 | 5.0 | 15.0 | 0.00 | 0.00 | 0.00 | 1002.8 | |
| 20260506095830 | 0 | 225 | 5.0 | 12.0 | 0.00 | 0.00 | 0.00 | 1002.9 | |
| 20260506094651 | 0 | 180 | 4.0 | 11.0 | 0.00 | 0.00 | 0.00 | 1003.0 | |
| 20260506093513 | 0 | 180 | 8.0 | 14.0 | 0.00 | 0.00 | 0.00 | 1002.7 | |
| 20260506092332 | 0 | 248 | 8.0 | 11.0 | 0.00 | 0.00 | 0.00 | 1002.7 | |
| 20260506091153 | 0 | 225 | 5.0 | 11.0 | 0.00 | 0.00 | 0.00 | 1002.9 | |
| 20260506090015 | 0 | 225 | 8.0 | 8.0 | 0.00 | 0.00 | 0.00 | 1003.1 | |
| 20260506084837 | 0 | 225 | 5.0 | 12.0 | 0.00 | 0.00 | 0.00 | 1003.1 | |
| 20260506083659 | 0 | 315 | 4.0 | 10.0 | 0.00 | 0.00 | 0.00 | 1003.5 | |
| 20260506082519 | 0 | 338 | 3.0 | 10.0 | 0.00 | 0.00 | 0.00 | 1003.6 | |
| 20260506081341 | 0 | 225 | 3.0 | 7.0 | 0.00 | 0.00 | 0.00 | 1003.6 | |
| 20260506080201 | 0 | 338 | 5.0 | 10.0 | 0.00 | 0.00 | 0.00 | 1003.6 | |
| 20260506072706 | 0 | 293 | 7.0 | 9.0 | 0.00 | 0.00 | 0.00 | 1004.1 | |
| 20260506071527 | 0 | 338 | 7.0 | 11.0 | 0.00 | 0.00 | 0.00 | 1004.0 | |
| 20260506070347 | 0 | 315 | 3.0 | 10.0 | 0.00 | 0.00 | 0.00 | 1004.3 | |
| 20260506061655 | 0 | 293 | 7.0 | 11.0 | 0.00 | 0.00 | 0.00 | 1004.2 | |
| 20260506060514 | 0 | 270 | 4.0 | 9.0 | 0.00 | 0.00 | 0.00 | 1004.4 | |
| 20260506050639 | 0 | 225 | 1.0 | 6.0 | 0.00 | 0.00 | 0.00 | 1004.4 | |
| 20260506044315 | 0 | 315 | 1.0 | 2.0 | 0.00 | 0.00 | 0.00 | 1004.4 | |
| 20260506043133 | 0 | 248 | 1.0 | 2.0 | 0.00 | 0.00 | 0.00 | 1004.4 | |
| 20260506041950 | 0 | 293 | 0.0 | 1.0 | 0.00 | 0.00 | 0.00 | 1004.3 | |
| 20260506040808 | 0 | 270 | 0.0 | 2.0 | 0.00 | 0.00 | 0.00 | 1004.3 | |
| 20260506035626 | 0 | 270 | 2.0 | 2.0 | 0.00 | 0.00 | 0.00 | 1004.0 | |
| 20260506034444 | 0 | 270 | 2.0 | 2.0 | 0.00 | 0.00 | 0.00 | 1004.0 | |
| 20260506033302 | 0 | 225 | 0.0 | 0.0 | 0.00 | 0.00 | 0.00 | 1003.7 | |
| 20260506030938 | 0 | 270 | 1.0 | 2.0 | 0.00 | 0.00 | 0.00 | 1003.7 | |
| 20260506025754 | 0 | 315 | 0.0 | 2.0 | 0.00 | 0.00 | 0.00 | 1003.8 | |
| 20260506024611 | 0 | 338 | 0.0 | 3.0 | 0.00 | 0.00 | 0.00 | 1003.8 | |
| 20260506023427 | 0 | 315 | 1.0 | 3.0 | 0.00 | 0.00 | 0.00 | 1003.9 | |
| 20260506022244 | 0 | 315 | 0.0 | 2.0 | 0.00 | 0.00 | 0.00 | 1003.8 | |
| 20260506021101 | 0 | 293 | 1.0 | 2.0 | 0.00 | 0.00 | 0.00 | 1003.6 | |
| 20260506015921 | 0 | 293 | 0.0 | 4.0 | 0.00 | 0.00 | 0.00 | 1003.3 | |
| 20260506014738 | 0 | 315 | 3.0 | 9.0 | 0.00 | 0.00 | 0.00 | 1003.3 | |
| 20260506013555 | 0 | 0 | 4.0 | 9.0 | 0.00 | 0.00 | 0.00 | 1003.3 | |
| 20260506012411 | 0 | 338 | 3.0 | 7.0 | 0.00 | 0.00 | 0.00 | 1003.3 | |
| 20260506011227 | 0 | 338 | 7.0 | 12.0 | 0.00 | 0.00 | 0.00 | 1003.0 | |
| 20260506010041 | 0 | 0 | 4.0 | 9.0 | 0.00 | 0.00 | 0.00 | 1003.0 | |
| 20260506004859 | 0 | 338 | 4.0 | 11.0 | 0.00 | 0.00 | 0.00 | 1003.2 | |
| 20260506003717 | 0 | 293 | 5.0 | 11.0 | 0.00 | 0.00 | 0.00 | 1003.1 | |
| 20260506002535 | 0 | 23 | 7.0 | 14.0 | 0.00 | 0.00 | 0.00 | 1003.1 | |
| 20260506001353 | 0 | 23 | 6.0 | 12.0 | 0.00 | 0.00 | 0.00 | 1003.0 | |
| 20260506000212 | 0 | 293 | 3.0 | 5.0 | 0.00 | 0.00 | 0.00 | 1002.9 | |
| 20260505235027 | 0 | 45 | 2.0 | 4.0 | 0.00 | 0.00 | 0.00 | 1002.7 | |
| 20260505233846 | 0 | 315 | 0.0 | 3.0 | 0.00 | 0.00 | 0.00 | 1003.0 | |
| 20260505232700 | 0 | 338 | 2.0 | 3.0 | 0.00 | 0.00 | 0.00 | 1003.1 | |
| 20260505231518 | 0 | 315 | 1.0 | 4.0 | 0.00 | 0.00 | 0.00 | 1002.8 | |
| 20260505230336 | 0 | 225 | 2.0 | 4.0 | 0.00 | 0.00 | 0.00 | 1002.6 | |
| 20260505225156 | 0 | 158 | 4.0 | 8.0 | 0.00 | 0.00 | 0.00 | 1002.4 | |
| 20260505222823 | 0 | 225 | 5.0 | 10.0 | 0.00 | 0.00 | 0.00 | 1002.2 | |
| 20260505221642 | 0 | 248 | 5.0 | 13.0 | 0.00 | 0.00 | 0.00 | 1002.2 | |
| 20260505220459 | 0 | 203 | 5.0 | 8.0 | 0.00 | 0.00 | 0.00 | 1002.1 | |
| 20260505215316 | 0 | 180 | 4.0 | 9.0 | 0.00 | 0.00 | 0.00 | 1001.9 | |
| 20260505214133 | 0 | 180 | 3.0 | 11.0 | 0.00 | 0.00 | 0.00 | 1001.7 | |
| 20260505212949 | 0 | 180 | 10.0 | 15.0 | 0.00 | 0.00 | 0.00 | 1001.5 | |
| 20260505211806 | 0 | 135 | 3.0 | 13.0 | 0.00 | 0.00 | 0.00 | 1001.6 | |
| 20260505210625 | 0 | 180 | 10.0 | 17.0 | 0.00 | 0.00 | 0.00 | 1001.5 | |
| 20260505205441 | 0 | 135 | 8.0 | 14.0 | 0.00 | 0.00 | 0.00 | 1001.5 | |
| 20260505204259 | 0 | 180 | 9.0 | 18.0 | 0.00 | 0.00 | 0.00 | 1001.5 | |
| 20260505203115 | 0 | 180 | 7.0 | 16.0 | 0.00 | 0.00 | 0.00 | 1001.6 | |
| 20260505201933 | 0 | 135 | 14.0 | 15.0 | 0.00 | 0.00 | 0.00 | 1001.5 | |
| 20260505200750 | 0 | 135 | 7.0 | 15.0 | 0.00 | 0.00 | 0.00 | 1001.4 | |
| 20260505195607 | 0 | 180 | 8.0 | 16.0 | 0.00 | 0.00 | 0.00 | 1001.4 | |
| 20260505194424 | 0 | 158 | 7.0 | 16.0 | 0.00 | 0.00 | 0.00 | 1001.3 | |
| 20260505193243 | 0 | 158 | 10.0 | 14.0 | 0.00 | 0.00 | 0.00 | 1001.3 | |
| 20260505192100 | 0 | 180 | 9.0 | 18.0 | 0.00 | 0.00 | 0.00 | 1001.1 | |
| 20260505190918 | 0 | 180 | 12.0 | 17.0 | 0.00 | 0.00 | 0.00 | 1001.1 | |
| 20260505185734 | 0 | 180 | 9.0 | 16.0 | 0.00 | 0.00 | 0.00 | 1000.9 | |
| 20260505184548 | 0 | 180 | 12.0 | 17.0 | 0.00 | 0.00 | 0.00 | 1000.8 | |
| 20260505183407 | 0 | 180 | 8.0 | 17.0 | 0.00 | 0.00 | 0.00 | 1000.6 | |
| 20260505182228 | 0 | 135 | 10.0 | 12.0 | 0.00 | 0.00 | 0.00 | 1000.4 | |
| 20260505181051 | 0 | 135 | 4.0 | 14.0 | 0.00 | 0.00 | 0.00 | 1000.3 | |
| 20260505175913 | 0 | 90 | 9.0 | 14.0 | 0.00 | 0.00 | 0.00 | 1000.3 | |
| 20260505174735 | 0 | 225 | 5.0 | 12.0 | 0.00 | 0.00 | 0.00 | 1000.0 | |
| 20260505173557 | 0 | 180 | 6.0 | 11.0 | 0.00 | 0.00 | 0.00 | 1000.0 | |
| 20260505172417 | 0 | 68 | 5.0 | 10.0 | 0.00 | 0.00 | 0.00 | 1000.0 | |
| 20260505171240 | 0 | 68 | 7.0 | 8.0 | 0.00 | 0.00 | 0.00 | 999.9 | |
| 20260505164923 | 0 | 135 | 6.0 | 11.0 | 0.00 | 0.00 | 0.00 | 999.9 | |
| 20260505163744 | 0 | 225 | 6.0 | 11.0 | 0.00 | 0.00 | 0.00 | 999.9 | |
| 20260505162605 | 0 | 180 | 4.0 | 10.0 | 0.00 | 0.00 | 0.00 | 1000.0 | |
| 20260505161427 | 0 | 180 | 9.0 | 13.0 | 0.00 | 0.00 | 0.00 | 1000.1 | |
| 20260505160248 | 0 | 338 | 10.0 | 18.0 | 0.00 | 0.00 | 0.00 | 1000.2 | |
| 20260505152751 | 0 | 225 | 11.0 | 19.0 | 0.00 | 0.00 | 0.00 | 999.9 | |
| 20260505151611 | 0 | 158 | 5.0 | 16.0 | 0.00 | 0.00 | 0.00 | 999.9 | |
| 20260505150432 | 0 | 225 | 4.0 | 15.0 | 0.00 | 0.00 | 0.00 | 1000.1 |